Location: Unspecified
(39.2620°N, 0.0000°E)
Time: 19:50:09
(UTC+00:00)

USA 359 - Visible Passes

Search period start: 04 April 2026 00:00
Search period end: 14 April 2026 00:00
Orbit: 576 x 578 km, 70.0° (Epoch: 28 September)

Date Brightness Start Highest point End Pass type
(mag) Time Alt. Az. Time Alt. Az. Time Alt. Az.
9 Apr ? 22:15:40 12° N 22:15:40 12° N 22:16:03 10° N visible
10 Apr ? 20:41:41 15° NE 20:41:41 15° NE 20:42:25 10° NNE visible
10 Apr ? 22:17:48 13° NW 22:17:48 13° NW 22:19:15 10° NNW visible
11 Apr ? 05:01:17 10° NNE 05:02:51 12° NE 05:04:25 10° ENE visible
11 Apr ? 20:42:34 73° NNE 20:42:34 73° NNE 20:46:26 10° NNE visible
12 Apr ? 19:06:52 10° ESE 19:08:17 11° E 19:09:42 10° E visible
12 Apr ? 20:42:00 10° SW 20:46:09 56° WNW 20:50:19 10° NNE visible
13 Apr ? 19:09:09 10° SSE 19:12:03 18° ESE 19:14:57 10° ENE visible
13 Apr ? 20:46:16 10° SW 20:50:10 36° WNW 20:54:05 10° N visible
